TimeEET,TemperatureF,Dew PointF,Humidity,Sea Level PressureIn,VisibilityMPH,Wind Direction,Wind SpeedMPH,Gust SpeedMPH,PrecipitationIn,Events,Conditions,WindDirDegrees,DateUTC
12:00 AM,64.4,57.2,77,30.06,-9999.0,NW,8.1,-,N/A,,Clear,310,2012-10-03 22:00:00
1:00 AM,62.6,59.0,88,30.06,-9999.0,WNW,8.1,-,N/A,,Clear,290,2012-10-03 23:00:00
2:00 AM,62.6,59.0,88,30.06,-9999.0,WNW,5.8,-,N/A,,Clear,290,2012-10-04 00:00:00
3:00 AM,60.8,59.0,94,30.06,-9999.0,West,4.6,-,N/A,,Clear,260,2012-10-04 01:00:00
4:00 AM,60.8,59.0,94,30.06,-9999.0,West,4.6,-,N/A,,Clear,270,2012-10-04 02:00:00
5:00 AM,60.8,60.8,100,30.06,-9999.0,WNW,4.6,-,N/A,,Clear,300,2012-10-04 03:00:00
6:00 AM,60.8,60.8,100,30.06,-9999.0,WNW,3.5,-,N/A,,Clear,300,2012-10-04 04:00:00
7:00 AM,60.8,59.0,94,30.06,3.7,WNW,9.2,-,N/A,,Unknown,300,2012-10-04 05:00:00
8:00 AM,64.4,60.8,88,30.06,3.7,NW,9.2,-,N/A,,Unknown,310,2012-10-04 06:00:00
9:00 AM,69.8,55.4,60,30.06,-9999.0,WNW,5.8,-,N/A,,Clear,300,2012-10-04 07:00:00
12:00 PM,80.6,44.6,28,30.01,-9999.0,NNW,16.1,-,N/A,,Clear,340,2012-10-04 10:00:00
1:00 PM,84.2,44.6,25,30.01,-9999.0,NNW,12.7,-,N/A,,Clear,330,2012-10-04 11:00:00
2:00 PM,84.2,44.6,25,29.98,-9999.0,NW,10.4,-,N/A,,Clear,320,2012-10-04 12:00:00
3:00 PM,84.2,42.8,23,29.98,-9999.0,NNW,16.1,-,N/A,,Clear,340,2012-10-04 13:00:00
4:00 PM,84.2,48.2,29,29.98,-9999.0,NW,15.0,-,N/A,,Clear,310,2012-10-04 14:00:00
5:00 PM,80.6,53.6,39,29.98,-9999.0,WNW,16.1,-,N/A,,Clear,300,2012-10-04 15:00:00
6:00 PM,77.0,53.6,44,30.01,-9999.0,NW,16.1,-,N/A,,Clear,310,2012-10-04 16:00:00
7:00 PM,75.2,53.6,47,30.01,-9999.0,NW,12.7,-,N/A,,Clear,310,2012-10-04 17:00:00
8:00 PM,73.4,68.0,83,30.04,-9999.0,NW,9.2,-,N/A,,Clear,320,2012-10-04 18:00:00
9:00 PM,71.6,51.8,50,30.04,-9999.0,NW,5.8,-,N/A,,Clear,320,2012-10-04 19:00:00
10:00 PM,68.0,51.8,56,30.04,-9999.0,WNW,6.9,-,N/A,,Clear,290,2012-10-04 20:00:00
11:00 PM,68.0,59.0,73,30.04,-9999.0,WNW,9.2,-,N/A,,Clear,290,2012-10-04 21:00:00